Find Starlink 30755

NORAD ID: 58186 Int'l Des: 2023-167 Owner: SPXS Country: US Constellation: starlink operational
LEOCIRCULAR

当前视图

正在加载3D地球...

关于 Starlink 30755

正在加载描述...

即将过境

Passes for default location (London). Set your location on the main map for personalized predictions.

高度历史

Loading altitude history...

两行轨道根数

1 58186U 23167M 26158.82880066 .00000051 00000-0 11388-4 0 9998
2 58186 42.9980 354.0946 0001137 253.1788 106.8939 15.27577558144770
Epoch: Jun 7, 2026 • Age: 28 hours

当前状态

高度 492.2 km
速度 7.62 km/s
星下点 -34.21°S, 45.2°E
发射日期 Oct 30, 2023
运行时间 2.6 years
类型 internet

技术详情

分类 Payload
质量 730.00 kg
干质量 700.00 kg
总质量 730.00 kg
长度 0.30 m
直径 4.10 m
跨度 29.00 m
形状 Box + pan
制造商 SPXS
平台类型 Starlink V2M
阶段状态 In Orbit
所有者/国家 SPXS/US

Most Searched